WFOV (USA 332)

Last updated on Fri Oct 24 2025 00:02:51 GMT+0000 (Coordinated Universal Time)

1 52940U 22073A 25296.55494358 -.00000349 00000+0 00000+0 0 9996 2 52940 3.0989 81.5717 0002020 80.5886 189.1174 1.00274748 11993
UTC large
Height (km)
Speed (km/s)
/
Latitude / Longitude
Inclination (degrees)
Orbital Period (minutes)
Azimuth
Elevation
Range (km)
Doppler Factor

Next 0 passes for location: London (51.5072 / 0.1276)

Sorry there are no passes over London.